This demonstration page uses our WeatherBlox Daily Observations layout. Learn more.

Left ArrowRight Arrow

44.89941, -97.11507

Hourly Observations for October 15, 2021

Temp ( °F °C ) Dew Point ( °F °C ) Humidity (%) Winds ( mph kmh ) Pressure ( in mb ) Visibility ( mi km ) Precip ( " mm )
12:53 am 00:53 Clear 39 3.9 34 1.1 82 82 WSW 8 13 29.94 1014 10 16 N/A
1:53 am 01:53 Clear 39 3.9 35 1.7 86 86 W 9 15 29.95 1014 10 16 N/A
2:53 am 02:53 Clear 38 3.3 34 1.1 86 86 W 9 15 29.96 1015 10 16 N/A
3:53 am 03:53 Clear 37 2.8 34 1.1 89 89 W 8 13 29.95 1014 10 16 N/A
4:53 am 04:53 Clear 35 1.7 33 0.6 93 93 W 8 13 29.94 1014 10 16 N/A
5:53 am 05:53 Clear 34 1.1 33 0.6 97 97 W 8 13 29.95 1014 10 16 N/A
6:53 am 06:53 Partly Cloudy 37 2.8 34 1.1 89 89 W 12 19 29.96 1015 10 16 N/A
7:53 am 07:53 Cloudy 38 3.3 35 1.7 89 89 W 10 17 29.98 1015 10 16 N/A
8:53 am 08:53 Cloudy 40 4.4 36 2.2 86 86 W 14 22 29.98 1015 10 16 N/A
9:14 am 09:14 Cloudy 41 5 36 2.2 82 82 W 15 24 30.00 1016 10 16 N/A
9:41 am 09:41 Partly Cloudy 42 5.6 37 2.8 82 82 W 15 24 30.00 1016 10 16 N/A
9:53 am 09:53 Mostly Sunny 43 6.1 37 2.8 80 80 WNW 16 26 30.00 1016 10 16 N/A
10:53 am 10:53 Mostly Sunny 44 6.7 35 1.7 71 71 W 16 26 30.01 1016 10 16 N/A
11:53 am 11:53 Mostly Sunny 47 8.3 36 2.2 66 66 WNW 15 24 30.01 1016 10 16 N/A
12:53 pm 12:53 Mostly Cloudy 49 9.4 35 1.7 59 59 W 12 19 30.01 1016 10 16 N/A
1:53 pm 13:53 Mostly Cloudy 51 10.6 32 undefined 48 48 W 18 30 29.98 1015 10 16 N/A
2:53 pm 14:53 Partly Cloudy 51 10.6 31 -0.6 46 46 WNW 20 31 29.98 1015 10 16 N/A
3:53 pm 15:53 Mostly Sunny 52 11.1 30 -1.1 43 43 WNW 16 26 29.99 1016 10 16 N/A
4:53 pm 16:53 Mostly Sunny 51 10.6 30 -1.1 44 44 WNW 14 22 30.00 1016 10 16 N/A
5:53 pm 17:53 Sunny 49 9.4 34 1.1 56 56 NW 14 22 30.01 1016 10 16 N/A
6:53 pm 18:53 Clear 47 8.3 32 undefined 56 56 WNW 10 17 30.02 1017 10 16 N/A
7:53 pm 19:53 Mostly Cloudy 46 7.8 33 0.6 61 61 WNW 9 15 30.03 1017 10 16 N/A
8:53 pm 20:53 Clear 44 6.7 32 undefined 63 63 WNW 8 13 30.03 1017 10 16 N/A
9:53 pm 21:53 Clear 37 2.8 32 undefined 82 82 WSW 7 11 30.05 1018 10 16 N/A
10:53 pm 22:53 Clear 36 2.2 31 -0.6 82 82 WSW 8 13 30.06 1018 10 16 N/A
11:53 pm 23:53 Clear 34 1.1 30 -1.1 85 85 W 8 13 30.06 1018 10 16 N/A

Powered by AerisWeather